Wichita, KS

9:48 AM CDT on August 20, 2017 (GMT -0500)
Wichita Eisenhower National Airport

Weather History for KICT - July, 2012

Change the Weather History Date:

Friday, July 20, 2012

  Actual Average Record
Temperature  
Mean Temperature 89 °F 81 °F  
Max Temperature 106 °F 93 °F 109 °F (2006)
Min Temperature 72 °F 70 °F 55 °F (1971)
Degree Days  
Heating Degree Days 0 0  
Month to date heating degree days 0 0  
Since 1 June heating degree days 10 6  
Since 1 July heating degree days 0 0  
Cooling Degree Days 24 16  
Month to date cooling degree days 443 315  
Year to date cooling degree days 1266 780  
Since 1 June cooling degree days 905 644  
Growing Degree Days 39 (Base 50)    
Moisture  
Dew Point 58 °F    
Average Humidity 44    
Maximum Humidity 73    
Minimum Humidity 14    
Precipitation  
Precipitation 0.00 in 0.09 in 1.93 in (1961)
Month to date precipitation 0.11 2.28  
Year to date precipitation 17.63 19.34  
Snow  
Snow 0.00 in 0.00 in 0.00 in (2007)
Month to date snowfall 0.0 0.0  
Since 1 June snowfall 0.0 0.0  
Since 1 July snowfall 0.0 0.0  
Snow Depth 0.00 in    
Sea Level Pressure  
Sea Level Pressure 29.98 in    
Wind  
Wind Speed 9 mph (East)    
Max Wind Speed 17 mph    
Max Gust Speed 28 mph    
Visibility 10 miles    
Events      
T = Trace of Precipitation, MM = Missing Value Source: NWS Daily Summary

Daily Weather History Graph

Daily Weather History Graph

Search for Another Location

Airport or City:

Trip Planner

Search our weather history database for the weather conditions in past years. The results will help you decide how hot, cold, wet, or windy it might be!

Date:

Astronomy

Jul. 20, 2012 Rise Set
Actual Time 6:24 AM CDT 8:47 PM CDT
Civil Twilight 5:54 AM CDT 9:17 PM CDT
Nautical Twilight 5:17 AM CDT 9:54 PM CDT
Astronomical Twilight 4:36 AM CDT 10:34 PM CDT
Moon 7:59 AM CDT 9:31 PM CDT
Length of Visible Light 15h 23m
Length of Day
14h 23m
Waxing Crescent, 3% of the Moon is Illuminated
Jul 20
Waxing Crescent
Jul 26
First Quarter
Aug 1
Full
Aug 9
Last Quarter
Aug 17
New

Hourly Weather History & Observations

Time (CDT) Temp. Heat Index Dew Point Humidity Pressure Visibility Wind Dir Wind Speed Gust Speed Precip Events Conditions
12:53 AM 79.0 °F - 62.1 °F 56% 29.99 in 10.0 mi Calm Calm - N/A   Partly Cloudy
1:53 AM 78.1 °F - 64.0 °F 62% 29.99 in 10.0 mi NE 4.6 mph - N/A   Clear
2:53 AM 78.1 °F - 64.0 °F 62% 29.99 in 10.0 mi NE 4.6 mph - N/A   Clear
3:53 AM 75.9 °F - 64.0 °F 67% 29.97 in 10.0 mi Calm Calm - N/A   Partly Cloudy
4:53 AM 72.0 °F - 63.0 °F 73% 29.99 in 10.0 mi Calm Calm - N/A   Clear
5:53 AM 75.0 °F - 64.0 °F 69% 29.99 in 10.0 mi East 4.6 mph - N/A   Scattered Clouds
6:53 AM 77.0 °F - 63.0 °F 62% 30.00 in 10.0 mi ENE 5.8 mph - N/A   Scattered Clouds
7:53 AM 82.9 °F 83.3 °F 61.0 °F 47% 30.00 in 10.0 mi East 8.1 mph - N/A   Partly Cloudy
8:53 AM 87.1 °F 87.0 °F 61.0 °F 41% 30.01 in 10.0 mi East 10.4 mph - N/A   Partly Cloudy
9:53 AM 90.0 °F 90.3 °F 62.1 °F 39% 30.02 in 10.0 mi East 10.4 mph - N/A   Partly Cloudy
10:53 AM 96.1 °F 96.0 °F 60.1 °F 30% 30.01 in 10.0 mi ESE 12.7 mph - N/A   Partly Cloudy
11:53 AM 99.0 °F 98.6 °F 59.0 °F 26% 30.00 in 10.0 mi East 11.5 mph 16.1 mph N/A   Partly Cloudy
12:53 PM 100.4 °F 100.2 °F 59.0 °F 25% 30.05 in 10.0 mi ENE 13.8 mph - N/A   Scattered Clouds
1:53 PM 102.0 °F 102.7 °F 60.1 °F 25% 29.98 in 10.0 mi East 11.5 mph - N/A   Partly Cloudy
2:53 PM 104.0 °F 103.4 °F 57.0 °F 21% 29.98 in 10.0 mi NE 11.5 mph 16.1 mph N/A   Partly Cloudy
3:53 PM 104.0 °F 102.9 °F 55.0 °F 20% 29.96 in 10.0 mi ENE 12.7 mph 17.3 mph N/A   Partly Cloudy
4:53 PM 105.1 °F 103.3 °F 53.1 °F 18% 29.94 in 10.0 mi ENE 12.7 mph 17.3 mph N/A   Partly Cloudy
5:53 PM 104.0 °F - 46.0 °F 14% 29.94 in 10.0 mi East 11.5 mph 18.4 mph N/A   Partly Cloudy
6:53 PM 102.0 °F - 48.9 °F 17% 29.93 in 10.0 mi East 11.5 mph - N/A   Partly Cloudy
7:53 PM 99.0 °F - 50.0 °F 19% 29.94 in 10.0 mi East 10.4 mph 19.6 mph N/A   Partly Cloudy
8:53 PM 93.9 °F - 50.0 °F 22% 29.94 in 10.0 mi East 9.2 mph - N/A   Partly Cloudy
9:53 PM 91.0 °F 88.5 °F 53.1 °F 27% 29.96 in 10.0 mi East 11.5 mph - N/A   Partly Cloudy
10:53 PM 89.1 °F 86.9 °F 54.0 °F 30% 29.97 in 10.0 mi East 10.4 mph - N/A   Partly Cloudy
11:53 PM 87.1 °F 85.1 °F 54.0 °F 32% 29.98 in 10.0 mi East 12.7 mph - N/A   Partly Cloudy